NS7V-1 Weather Reports


time (UTC)temp
C
wind
direction
speed
KPH
gust
KPH
rain 1hr
cm
rain 24hr
cm
rain mn
cm
humidity
%
barometer
mb
20260505091602 12 180 6.4 11.3 0.00 0.00 0.00 80 1011.1
20260505090540 12 203 6.4 12.9 0.00 0.00 0.00 81 1011.0
20260505085542 12 180 8.0 17.7 0.00 0.00 0.00 80 1010.9
20260505084521 12 180 6.4 16.1 0.00 0.00 0.00 83 1010.8
20260505083520 11 158 8.0 16.1 0.00 0.00 0.00 85 1010.7
20260505082521 11 158 8.0 22.5 0.00 0.00 0.00 86 1010.7
20260505081522 11 158 9.7 19.3 0.00 0.00 0.00 86 1010.5
20260505080602 11 180 8.0 14.5 0.00 0.00 0.00 86 1010.4
20260505075521 11 180 6.4 14.5 0.00 0.00 0.00 86 1010.4
20260505074522 11 180 6.4 14.5 0.00 0.00 0.00 87 1010.2
20260505073522 11 180 4.8 9.7 0.00 0.00 0.00 87 1010.2
20260505072520 11 203 4.8 11.3 0.00 0.00 0.00 87 1010.0
20260505071522 11 203 6.4 12.9 0.00 0.00 0.00 88 1010.0
20260505070522 11 180 6.4 14.5 0.00 0.00 0.00 87 1010.0
20260505065523 11 180 4.8 9.7 0.00 0.00 0.00 86 1009.9
20260505064520 11 203 4.8 11.3 0.00 0.00 0.00 87 1009.8
20260505063522 11 180 4.8 11.3 0.00 0.00 0.00 86 1009.7
20260505062542 11 203 4.8 9.7 0.00 0.00 0.00 86 1009.6
20260505061522 11 180 4.8 9.7 0.00 0.00 0.00 86 1009.6
20260505060540 11 203 3.2 8.0 0.00 0.00 0.00 86 1009.5
20260505055522 12 203 3.2 8.0 0.00 0.00 0.00 86 1009.5
20260505054522 12 203 3.2 6.4 0.00 0.00 0.00 84 1009.4
20260505053522 12 180 4.8 9.7 0.00 0.00 0.00 83 1009.3
20260505052523 12 203 4.8 12.9 0.00 0.00 0.00 83 1009.3
20260505051601 12 203 3.2 11.3 0.00 0.00 0.00 84 1009.2
20260505050522 12 203 4.8 9.7 0.00 0.00 0.00 83 1009.1
20260505041522 11 203 1.6 4.8 0.00 0.00 0.00 86 1008.7
20260505040521 11 203 3.2 8.0 0.00 0.00 0.00 86 1008.6
20260505035702 12 203 3.2 8.0 0.00 0.00 0.00 85 1008.5
20260505034522 12 203 3.2 6.4 0.00 0.00 0.00 85 1008.4
20260505033520 12 203 3.2 4.8 0.00 0.00 0.00 84 1008.3
20260505032541 12 203 1.6 4.8 0.00 0.00 0.00 84 1008.2
20260505031522 12 0.0 3.2 0.00 0.00 0.00 83 1008.2
20260505030541 12 0.0 3.2 0.00 0.00 0.00 82 1008.1
20260505025521 12 225 1.6 4.8 0.00 0.00 0.00 82 1008.0
20260505024521 12 203 1.6 6.4 0.00 0.00 0.00 82 1008.0
20260505023521 13 180 1.6 6.4 0.00 0.00 0.00 80 1008.1
20260505022522 13 180 3.2 8.0 0.00 0.00 0.00 79 1008.0
20260505021522 13 203 1.6 4.8 0.00 0.00 0.00 77 1008.2
20260505020522 14 203 3.2 8.0 0.00 0.00 0.00 75 1008.1
20260505015521 14 203 4.8 9.7 0.00 0.00 0.00 74 1008.2
20260505014521 15 203 3.2 8.0 0.00 0.00 0.00 73 1008.3
20260505013544 15 203 3.2 8.0 0.00 0.00 0.00 72 1008.4
20260505012522 15 203 3.2 8.0 0.00 0.00 0.00 72 1008.4
20260505011521 16 203 3.2 6.4 0.00 0.00 0.00 69 1008.4
20260505010521 16 203 3.2 8.0 0.00 0.00 0.00 69 1008.4
20260505005522 17 203 3.2 8.0 0.00 0.00 0.00 66 1008.5
20260505004521 17 203 3.2 8.0 0.00 0.00 0.00 64 1008.5
20260505003522 18 203 3.2 9.7 0.00 0.00 0.00 63 1008.6
20260505002521 18 203 4.8 9.7 0.00 0.00 0.00 59 1008.6
20260505001521 19 203 4.8 11.3 0.00 0.00 0.00 57 1008.7
20260505000522 20 203 4.8 11.3 0.00 0.00 0.00 57 1008.8
20260504235521 19 203 4.8 9.7 0.00 0.00 0.00 60 1008.8
20260504234522 18 203 3.2 8.0 0.00 0.00 0.00 62 1008.9
20260504233521 18 203 4.8 8.0 0.00 0.00 0.00 62 1008.9
20260504232641 18 203 3.2 8.0 0.00 0.00 0.00 64 1009.0
20260504231521 18 203 3.2 8.0 0.00 0.00 0.00 61 1009.0
20260504230521 19 203 3.2 6.4 0.00 0.00 0.00 60 1009.1
20260504225521 20 203 4.8 8.0 0.00 0.00 0.00 58 1009.2
20260504224521 21 203 3.2 6.4 0.00 0.00 0.00 52 1009.4
20260504223542 22 203 1.6 6.4 0.00 0.00 0.00 50 1009.3
20260504222521 22 180 3.2 6.4 0.00 0.00 0.00 49 1009.4
20260504221521 21 158 3.2 6.4 0.00 0.00 0.00 54 1009.4
20260504220521 21 203 3.2 6.4 0.00 0.00 0.00 54 1009.5
20260504215521 21 203 1.6 4.8 0.00 0.00 0.00 54 1009.6
20260504214601 21 180 3.2 6.4 0.00 0.00 0.00 52 1009.6
20260504213521 22 180 3.2 6.4 0.00 0.00 0.00 50 1009.7
20260504212521 22 203 3.2 4.8 0.00 0.00 0.00 51 1009.7
20260504211522 21 203 3.2 6.4 0.00 0.00 0.00 51 1009.8
20260504210521 21 158 3.2 6.4 0.00 0.00 0.00 52 1009.9
20260504205521 21 158 1.6 3.2 0.00 0.00 0.00 54 1009.8
20260504204522 21 203 3.2 6.4 0.00 0.00 0.00 59 1009.9
20260504203521 21 158 3.2 6.4 0.00 0.00 0.00 54 1010.1
20260504202521 21 180 3.2 6.4 0.00 0.00 0.00 53 1010.2
20260504201521 22 158 3.2 9.7 0.00 0.00 0.00 50 1010.1
20260504200521 21 203 1.6 6.4 0.00 0.00 0.00 52 1010.2
20260504195521 21 158 1.6 8.0 0.00 0.00 0.00 51 1010.3
20260504194521 21 158 1.6 4.8 0.00 0.00 0.00 53 1010.1
20260504193521 21 180 1.6 6.4 0.00 0.00 0.00 51 1010.2
20260504192521 21 203 3.2 9.7 0.00 0.00 0.00 53 1010.1
20260504191521 21 203 3.2 6.4 0.00 0.00 0.00 55 1010.1
20260504190520 21 203 3.2 6.4 0.00 0.00 0.00 57 1010.3
20260504185601 21 203 1.6 6.4 0.00 0.00 0.00 53 1010.3
20260504184521 21 203 1.6 4.8 0.00 0.00 0.00 54 1010.3
20260504183541 21 180 3.2 6.4 0.00 0.00 0.00 52 1010.2
20260504182520 21 158 3.2 6.4 0.00 0.00 0.00 55 1010.3
20260504181522 20 45 1.6 4.8 0.00 0.00 0.00 55 1010.4
20260504180521 20 45 1.6 4.8 0.00 0.00 0.00 57 1010.3
20260504175540 19 0.0 3.2 0.00 0.00 0.00 59 1010.3
20260504174521 19 45 1.6 8.0 0.00 0.00 0.00 61 1010.3
20260504173520 18 23 3.2 4.8 0.00 0.00 0.00 64 1010.3
20260504172520 17 45 1.6 4.8 0.00 0.00 0.00 65 1010.4
20260504171521 18 23 1.6 4.8 0.00 0.00 0.00 67 1010.4
20260504170520 17 45 1.6 4.8 0.00 0.00 0.00 69 1010.4
20260504150521 16 0.0 3.2 0.00 0.00 0.00 79 1010.3
20260504140521 11 0.0 0.0 0.00 0.00 0.00 88 1009.8
20260504130520 10 0.0 1.6 0.00 0.00 0.00 89 1009.3
20260504110522 11 0.0 3.2 0.00 0.00 0.00 88 1009.2
20260504100520 11 0.0 1.6 0.00 0.00 0.00 85 1009.1